Weather History for KCOM - March, 2013

Change the Weather History Date:

Friday, March 22, 2013

  Actual Average (KABI) Record (KABI)
Temperature  
Mean Temperature 54 °F 58 °F  
Max Temperature 64 °F 71 °F 92 °F (1934)
Min Temperature 43 °F 46 °F 23 °F (1989)
Degree Days  
Heating Degree Days 12 8  
Month to date heating degree days 233  
Since 1 July heating degree days 2366  
Cooling Degree Days 0 1  
Month to date cooling degree days 17  
Year to date cooling degree days 22  
Growing Degree Days 4 (Base 50)    
Moisture  
Dew Point 45 °F    
Average Humidity 67    
Maximum Humidity 81    
Minimum Humidity 50    
Precipitation  
Precipitation 0.00 in 0.06 in 0.80 in (1979)
Month to date precipitation 1.24  
Year to date precipitation 3.62  
Sea Level Pressure  
Sea Level Pressure 29.74 in    
Wind  
Wind Speed 11 mph (North)    
Max Wind Speed 23 mph    
Max Gust Speed 30 mph    
Visibility 10 miles    
Events      
T = Trace of Precipitation, MM = Missing Value Source: NWS Daily Summary

Daily Weather History Graph

Daily Weather History Graph

Search for Another Location

Airport or City:

Trip Planner

Search our weather history database for the weather conditions in past years. The results will help you decide how hot, cold, wet, or windy it might be!

Date:

Astronomy

Mar. 22, 2013 Rise Set
Actual Time 7:38 AM CDT 7:50 PM CDT
Civil Twilight 7:14 AM CDT 8:15 PM CDT
Nautical Twilight 6:45 AM CDT 8:43 PM CDT
Astronomical Twilight 6:16 AM CDT 9:12 PM CDT
Moon 3:33 PM CDT (3/22) 4:24 AM CDT (3/22)
Length of Visible Light 13h 01m
Length of Day
12h 12m
Waxing Gibbous, 77% of the Moon is Illuminated
Mar 22
Waxing Gibbous
Mar 27
Full
Apr 2
Last Quarter
Apr 10
New
Apr 18
First Quarter

Hourly Weather History & Observations

Time (CDT) Temp. Windchill Dew Point Humidity Pressure Visibility Wind Dir Wind Speed Gust Speed Precip Events Conditions
12:15 AM 64.9 °F - 53.6 °F 67% 29.61 in 10.0 mi SSW 10.4 mph - N/A   Clear
12:35 AM 63.9 °F - 53.2 °F 68% 29.61 in 10.0 mi SSW 11.5 mph - N/A   Clear
12:55 AM 64.0 °F - 53.2 °F 68% 29.60 in 10.0 mi SSW 12.7 mph 18.4 mph N/A   Clear
1:15 AM 63.5 °F - 53.4 °F 70% 29.60 in 10.0 mi SSW 10.4 mph - N/A   Clear
1:35 AM 62.8 °F - 53.6 °F 72% 29.60 in 10.0 mi SW 9.2 mph - N/A   Clear
1:55 AM 61.7 °F - 53.4 °F 74% 29.60 in 10.0 mi SSW 6.9 mph - N/A   Clear
2:15 AM 60.8 °F - 53.2 °F 76% 29.61 in 10.0 mi SW 8.1 mph - N/A   Clear
2:35 AM 60.6 °F - 53.2 °F 77% 29.61 in 10.0 mi SW 8.1 mph - N/A   Clear
2:55 AM 60.1 °F - 53.2 °F 78% 29.61 in 10.0 mi SW 8.1 mph - N/A   Clear
3:15 AM 60.3 °F - 53.6 °F 79% 29.60 in 10.0 mi SW 6.9 mph - N/A   Clear
3:35 AM 60.8 °F - 54.3 °F 79% 29.60 in 10.0 mi SW 8.1 mph - N/A   Clear
3:55 AM 61.2 °F - 54.5 °F 79% 29.60 in 10.0 mi SW 8.1 mph - N/A   Clear
4:15 AM 61.7 °F - 54.7 °F 78% 29.61 in 10.0 mi SW 11.5 mph - N/A   Clear
4:35 AM 62.6 °F - 55.0 °F 76% 29.61 in 10.0 mi WSW 12.7 mph 17.3 mph N/A   Clear
4:55 AM 62.6 °F - 55.0 °F 76% 29.61 in 10.0 mi WSW 8.1 mph - N/A   Clear
5:15 AM 61.9 °F - 55.2 °F 79% 29.62 in 10.0 mi WSW 6.9 mph - N/A   Clear
5:35 AM 63.0 °F - 55.6 °F 77% 29.63 in 10.0 mi West 9.2 mph - N/A   Clear
5:55 AM 63.3 °F - 55.6 °F 76% 29.63 in 10.0 mi West 8.1 mph - N/A   Clear
6:15 AM 62.8 °F - 55.6 °F 77% 29.65 in 10.0 mi WNW 8.1 mph - N/A   Clear
6:35 AM 60.8 °F - 54.5 °F 80% 29.67 in 10.0 mi NNW 5.8 mph - N/A   Clear
6:55 AM 56.8 °F - 45.3 °F 65% 29.70 in 10.0 mi North 21.9 mph 28.8 mph N/A   Scattered Clouds
7:15 AM 50.9 °F - 43.7 °F 76% 29.72 in 10.0 mi North 18.4 mph 27.6 mph N/A   Clear
7:35 AM 48.9 °F - 41.2 °F 75% 29.74 in 10.0 mi North 13.8 mph 20.7 mph N/A   Clear
7:55 AM 47.7 °F - 41.0 °F 78% 29.74 in 10.0 mi North 21.9 mph 27.6 mph N/A   Clear
8:15 AM 47.8 °F - 40.6 °F 76% 29.75 in 10.0 mi North 21.9 mph 29.9 mph N/A   Clear
8:35 AM 48.2 °F - 40.5 °F 75% 29.76 in 10.0 mi North 18.4 mph - N/A   Clear
8:55 AM 49.5 °F - 40.6 °F 72% 29.76 in 10.0 mi North 19.6 mph 26.5 mph N/A   Clear
9:15 AM 50.4 °F - 40.5 °F 69% 29.77 in 10.0 mi North 23.0 mph 27.6 mph N/A   Clear
9:35 AM 50.7 °F - 40.3 °F 67% 29.79 in 10.0 mi North 19.6 mph 26.5 mph N/A   Clear
9:55 AM 50.9 °F - 39.9 °F 66% 29.79 in 10.0 mi North 15.0 mph 23.0 mph N/A   Clear
10:15 AM 51.6 °F - 39.4 °F 63% 29.80 in 10.0 mi North 18.4 mph 25.3 mph N/A   Clear
10:35 AM 52.0 °F - 38.8 °F 61% 29.81 in 10.0 mi North 18.4 mph 23.0 mph N/A   Clear
10:55 AM 52.5 °F - 38.5 °F 59% 29.82 in 10.0 mi North 18.4 mph 23.0 mph N/A   Clear
11:15 AM 53.4 °F - 38.7 °F 57% 29.81 in 10.0 mi NNE 16.1 mph - N/A   Clear
11:35 AM 55.2 °F - 41.2 °F 59% 29.81 in 10.0 mi NNE 15.0 mph - N/A   Clear
11:55 AM 56.3 °F - 42.8 °F 61% 29.80 in 10.0 mi NNE 16.1 mph 21.9 mph N/A   Clear
12:15 PM 58.3 °F - 43.2 °F 57% 29.80 in 10.0 mi NNE 12.7 mph 17.3 mph N/A   Clear
12:35 PM 59.0 °F - 42.8 °F 55% 29.80 in 10.0 mi NNE 10.4 mph - N/A   Mostly Cloudy
12:55 PM 58.5 °F - 43.5 °F 58% 29.80 in 10.0 mi NNE 10.4 mph 16.1 mph N/A   Overcast
1:15 PM 58.5 °F - 42.4 °F 55% 29.80 in 10.0 mi North 10.4 mph 16.1 mph N/A   Overcast
1:35 PM 59.2 °F - 42.1 °F 53% 29.80 in 10.0 mi NNE 12.7 mph 17.3 mph N/A   Overcast
1:55 PM 59.7 °F - 42.3 °F 52% 29.80 in 10.0 mi North 13.8 mph 17.3 mph N/A   Overcast
2:15 PM 59.2 °F - 42.3 °F 53% 29.80 in 10.0 mi North 11.5 mph - N/A   Overcast
2:35 PM 59.7 °F - 42.4 °F 53% 29.79 in 10.0 mi North 8.1 mph - N/A   Mostly Cloudy
2:55 PM 59.4 °F - 42.1 °F 53% 29.78 in 10.0 mi North 10.4 mph - N/A   Scattered Clouds
3:15 PM 59.9 °F - 42.1 °F 52% 29.77 in 10.0 mi North 10.4 mph 16.1 mph N/A   Clear
3:35 PM 60.8 °F - 42.1 °F 50% 29.77 in 10.0 mi North 12.7 mph 16.1 mph N/A   Clear
3:55 PM 59.2 °F - 41.7 °F 52% 29.77 in 10.0 mi North 11.5 mph 18.4 mph N/A   Clear
4:15 PM 60.1 °F - 42.1 °F 51% 29.77 in 10.0 mi NNE 13.8 mph 18.4 mph N/A   Clear
4:35 PM 59.5 °F - 41.9 °F 52% 29.78 in 10.0 mi NNE 11.5 mph - N/A   Clear
4:55 PM 58.8 °F - 41.4 °F 52% 29.78 in 10.0 mi North 10.4 mph - N/A   Clear
5:15 PM 57.2 °F - 40.8 °F 54% 29.77 in 10.0 mi NNE 12.7 mph 18.4 mph N/A   Clear
5:35 PM 56.3 °F - 40.6 °F 56% 29.77 in 10.0 mi NNE 13.8 mph 17.3 mph N/A   Clear
5:55 PM 55.6 °F - 40.6 °F 57% 29.78 in 10.0 mi NNE 12.7 mph - N/A   Clear
6:15 PM 54.9 °F - 40.6 °F 59% 29.79 in 10.0 mi NNE 13.8 mph - N/A   Clear
6:35 PM 54.9 °F - 40.8 °F 59% 29.78 in 10.0 mi NNE 11.5 mph - N/A   Clear
6:55 PM 54.3 °F - 40.8 °F 60% 29.78 in 10.0 mi NNE 10.4 mph - N/A   Clear
7:15 PM 52.9 °F - 40.1 °F 62% 29.77 in 10.0 mi NE 10.4 mph - N/A   Clear
7:35 PM 52.0 °F - 40.1 °F 64% 29.78 in 10.0 mi NE 9.2 mph - N/A   Clear
7:55 PM 50.7 °F - 39.6 °F 66% 29.78 in 10.0 mi NE 10.4 mph - N/A   Clear
8:15 PM 50.0 °F - 39.6 °F 67% 29.78 in 10.0 mi NE 8.1 mph - N/A   Clear
8:35 PM 49.1 °F - 39.4 °F 69% 29.79 in 10.0 mi ENE 6.9 mph - N/A   Clear
8:55 PM 48.2 °F - 39.0 °F 71% 29.79 in 10.0 mi ENE 4.6 mph - N/A   Clear
9:15 PM 47.1 °F - 38.8 °F 73% 29.80 in 10.0 mi ENE 4.6 mph - N/A   Clear
9:35 PM 46.2 °F 43.3 °F 38.1 °F 73% 29.80 in 10.0 mi ENE 5.8 mph - N/A   Clear
9:55 PM 45.7 °F 42.7 °F 38.5 °F 76% 29.80 in 10.0 mi NE 5.8 mph - N/A   Clear
10:15 PM 45.0 °F 41.8 °F 38.3 °F 77% 29.81 in 10.0 mi NE 5.8 mph - N/A   Clear
10:35 PM 45.3 °F 41.6 °F 38.7 °F 78% 29.81 in 10.0 mi NNE 6.9 mph - N/A   Clear
10:55 PM 45.5 °F 42.5 °F 38.5 °F 76% 29.81 in 10.0 mi ENE 5.8 mph - N/A   Clear
11:35 PM 43.7 °F 40.3 °F 38.3 °F 81% 29.81 in 10.0 mi NE 5.8 mph - N/A   Clear
11:55 PM 43.7 °F 39.7 °F 38.3 °F 81% 29.80 in 10.0 mi NE 6.9 mph - N/A   Clear